OE3BIA-11 Weather Reports


time (UTC)temp
C
wind
direction
speed
KPH
gust
KPH
rain 1hr
cm
rain 24hr
cm
rain mn
cm
humidity
%
barometer
mb
20260905223339 19 270 8.0 14.5 0.00 0.00 0.00 5 1242.7
20260905222836 20 270 12.9 22.5 0.00 0.00 0.00 6 1244.5
20260905222333 19 270 11.3 24.1 0.00 0.00 0.00 6 1244.3
20260905221830 18 247 8.0 16.1 0.00 0.00 0.00 5 1242.6
20260905221328 18 247 8.0 16.1 0.00 0.00 0.00 5 1241.1
20260905220825 17 247 0.0 0.0 0.00 0.00 0.00 5 1241.5
20260905220322 17 270 4.8 0.0 0.00 0.00 0.00 5 1242.0
20260905215819 17 270 4.8 4.8 0.00 0.00 0.00 5 1241.7
20260905215317 17 270 4.8 0.0 0.00 0.00 0.00 5 1241.6
20260905214814 17 247 8.0 12.9 0.00 0.00 0.00 5 1241.5
20260905214311 17 270 6.4 9.7 0.00 0.00 0.00 5 1241.7
20260905213808 17 270 6.4 11.3 0.00 0.00 0.00 5 1240.8
20260905213306 17 270 6.4 9.7 0.00 0.00 0.00 5 1241.2
20260905212803 17 247 4.8 4.8 0.00 0.00 0.00 5 1240.3
20260905211755 18 270 6.4 9.7 0.00 0.00 0.00 5 1241.0
20260905211252 18 292 4.8 6.4 0.00 0.00 0.00 5 1240.2
20260905210749 18 247 6.4 9.7 0.00 0.00 0.00 5 1239.1
20260905205741 18 270 6.4 0.0 0.00 0.00 0.00 5 1239.7
20260905205238 18 247 8.0 11.3 0.00 0.00 0.00 5 1239.4
20260905204736 18 247 8.0 14.5 0.00 0.00 0.00 5 1239.4
20260905204233 18 270 4.8 4.8 0.00 0.00 0.00 5 1238.8
20260905203730 18 270 0.0 0.0 0.00 0.00 0.00 5 1239.6
20260905203227 18 270 9.7 16.1 0.00 0.00 0.00 5 1239.3
20260905202724 18 247 4.8 8.0 0.00 0.00 0.00 5 1238.3
20260905202222 18 270 8.0 11.3 0.00 0.00 0.00 5 1239.1
20260905201719 18 247 4.8 4.8 0.00 0.00 0.00 5 1238.6
20260905201216 18 270 6.4 11.3 0.00 0.00 0.00 5 1239.1
20260905200713 18 270 4.8 6.4 0.00 0.00 0.00 5 1238.4
20260905200211 18 270 0.0 0.0 0.00 0.00 0.00 5 1239.3
20260905195708 19 270 0.0 0.0 0.00 0.00 0.00 5 1238.6
20260905195205 19 270 6.4 6.4 0.00 0.00 0.00 5 1238.7
20260905194702 19 270 4.8 9.7 0.00 0.00 0.00 5 1238.4
20260905194200 19 247 6.4 11.3 0.00 0.00 0.00 5 1237.0
20260905193659 20 292 0.0 0.0 0.00 0.00 0.00 5 1237.0
20260905193154 20 292 0.0 0.0 0.00 0.00 0.00 5 1237.6
20260905192146 20 270 6.4 9.7 0.00 0.00 0.00 5 1237.0
20260905191643 19 0 0.0 0.0 0.00 0.00 0.00 5 1236.8
20260905191140 20 0 0.0 0.0 0.00 0.00 0.00 5 1236.5
20260905190638 20 0 4.8 6.4 0.00 0.00 0.00 5 1236.8
20260905190135 20 247 0.0 0.0 0.00 0.00 0.00 5 1236.7
20260905185632 20 247 0.0 0.0 0.00 0.00 0.00 5 1236.3
20260905185129 20 225 0.0 0.0 0.00 0.00 0.00 5 1236.3
20260905184626 21 247 8.0 16.1 0.00 0.00 0.00 5 1236.0
20260905184124 20 270 8.0 16.1 0.00 0.00 0.00 5 1236.1
20260905183621 20 247 9.7 19.3 0.00 0.00 0.00 5 1236.5
20260905183118 21 247 6.4 12.9 0.00 0.00 0.00 5 1235.3
20260905182615 21 247 6.4 9.7 0.00 0.00 0.00 5 1234.6
20260905182113 21 247 6.4 12.9 0.00 0.00 0.00 5 1235.0
20260905181610 21 270 6.4 11.3 0.00 0.00 0.00 5 1234.6
20260905181107 21 270 8.0 14.5 0.00 0.00 0.00 5 1234.5
20260905180604 21 247 6.4 11.3 0.00 0.00 0.00 5 1234.4
20260905175559 21 270 6.4 16.1 0.00 0.00 0.00 5 1234.4
20260905175056 21 270 8.0 17.7 0.00 0.00 0.00 5 1234.7
20260905174553 21 270 9.7 16.1 0.00 0.00 0.00 5 1235.5
20260905174050 21 270 6.4 11.3 0.00 0.00 0.00 5 1233.5
20260905173548 21 270 8.0 12.9 0.00 0.00 0.00 5 1232.8
20260905173045 21 247 6.4 11.3 0.00 0.00 0.00 5 1232.4
20260905172542 21 270 6.4 14.5 0.00 0.00 0.00 5 1232.4
20260905172040 21 270 9.7 17.7 0.00 0.00 0.00 5 1233.8
20260905171537 21 270 8.0 17.7 0.00 0.00 0.00 5 1233.9
20260905171034 22 247 6.4 11.3 0.00 0.00 0.00 5 1232.4
20260905170531 22 247 8.0 16.1 0.00 0.00 0.00 5 1232.5
20260905170028 22 225 8.0 20.9 0.00 0.00 0.00 4 1231.0
20260905165526 22 270 8.0 16.1 0.00 0.00 0.00 4 1230.4
20260905165023 22 270 9.7 22.5 0.00 0.00 0.00 4 1231.2
20260905164520 22 270 9.7 22.5 0.00 0.00 0.00 4 1231.4
20260905164017 22 270 9.7 24.1 0.00 0.00 0.00 4 1229.1
20260905163515 22 270 12.9 24.1 0.00 0.00 0.00 4 1230.7
20260905163012 22 270 9.7 24.1 0.00 0.00 0.00 4 1229.0
20260905162509 23 247 9.7 19.3 0.00 0.00 0.00 4 1228.2
20260905162007 23 270 11.3 25.7 0.00 0.00 0.00 4 1230.3
20260905161504 23 247 12.9 27.4 0.00 0.00 0.00 4 1230.5
20260905161001 23 225 9.7 25.7 0.00 0.00 0.00 4 1230.0
20260905160458 23 225 11.3 27.4 0.00 0.00 0.00 4 1229.0
20260905155955 23 247 9.7 22.5 0.00 0.00 0.00 4 1230.4
20260905155453 23 270 8.0 16.1 0.00 0.00 0.00 4 1228.2
20260905154950 23 270 11.3 30.6 0.00 0.00 0.00 4 1230.1
20260905154447 23 270 9.7 30.6 0.00 0.00 0.00 4 1228.6
20260905153944 23 270 11.3 30.6 0.00 0.00 0.00 4 1229.4
20260905153442 23 225 12.9 24.1 0.00 0.00 0.00 4 1229.8
20260905152939 23 270 8.0 20.9 0.00 0.00 0.00 4 1227.6
20260905152438 23 225 9.7 24.1 0.00 0.00 0.00 4 1228.6
20260905151934 23 247 9.7 22.5 0.00 0.00 0.00 4 1228.6
20260905151431 23 270 9.7 17.7 0.00 0.00 0.00 4 1228.5
20260905150928 23 270 9.7 16.1 0.00 0.00 0.00 4 1227.5
20260905150425 23 247 8.0 14.5 0.00 0.00 0.00 4 1227.9
20260905145923 23 247 12.9 27.4 0.00 0.00 0.00 4 1230.1
20260905145420 23 225 12.9 24.1 0.00 0.00 0.00 4 1228.6
20260905144917 23 270 9.7 17.7 0.00 0.00 0.00 4 1227.8
20260905144414 23 270 9.7 22.5 0.00 0.00 0.00 4 1228.1
20260905143911 23 225 11.3 25.7 0.00 0.00 0.00 4 1229.3
20260905143409 23 225 12.9 30.6 0.00 0.00 0.00 4 1229.1
20260905142906 23 270 9.7 25.7 0.00 0.00 0.00 4 1229.0
20260905142403 23 270 16.1 32.2 0.00 0.00 0.00 4 1229.8
20260905141900 23 270 8.0 29.0 0.00 0.00 0.00 4 1227.3
20260905141358 23 270 8.0 24.1 0.00 0.00 0.00 4 1228.2
20260905140855 23 112 11.3 22.5 0.00 0.00 0.00 4 1229.1
20260905140352 23 247 12.9 33.8 0.00 0.00 0.00 5 1230.5
20260905135849 23 112 11.3 37.0 0.00 0.00 0.00 5 1230.1
20260905135346 22 225 12.9 32.2 0.00 0.00 0.00 5 1232.0
20260905134844 22 90 9.7 20.9 0.00 0.00 0.00 5 1230.3
20260905134341 22 270 11.3 25.7 0.00 0.00 0.00 5 1231.8
20260905133838 22 270 12.9 24.1 0.00 0.00 0.00 5 1231.0
20260905133336 22 247 8.0 20.9 0.00 0.00 0.00 4 1228.6
20260905132833 22 270 9.7 25.7 0.00 0.00 0.00 5 1230.6
20260905132330 22 135 12.9 24.1 0.00 0.00 0.00 5 1230.5
20260905131827 22 270 9.7 19.3 0.00 0.00 0.00 5 1231.6
20260905131324 22 270 11.3 27.4 0.00 0.00 0.00 5 1231.0
20260905130822 22 270 6.4 17.7 0.00 0.00 0.00 5 1231.0
20260905130319 22 247 11.3 30.6 0.00 0.00 0.00 5 1233.0
20260905125816 22 270 12.9 32.2 0.00 0.00 0.00 5 1234.0
20260905125313 22 270 12.9 27.4 0.00 0.00 0.00 5 1232.9
20260905124811 22 112 11.3 25.7 0.00 0.00 0.00 5 1231.6
20260905124308 22 270 11.3 24.1 0.00 0.00 0.00 5 1231.5
20260905123805 22 270 9.7 20.9 0.00 0.00 0.00 5 1232.4
20260905123303 22 247 14.5 29.0 0.00 0.00 0.00 5 1235.1
20260905122800 22 270 11.3 25.7 0.00 0.00 0.00 5 1234.4
20260905122257 22 247 14.5 32.2 0.00 0.00 0.00 5 1234.4
20260905121754 22 270 16.1 35.4 0.00 0.00 0.00 5 1236.9
20260905121251 21 270 14.5 38.6 0.00 0.00 0.00 5 1235.6
20260905120749 21 292 12.9 37.0 0.00 0.00 0.00 5 1234.8
20260905120246 22 270 11.3 24.1 0.00 0.00 0.00 5 1234.2
20260905115743 21 270 16.1 38.6 0.00 0.00 0.00 5 1236.8
20260905115240 21 270 16.1 38.6 0.00 0.00 0.00 5 1235.4
20260905114738 21 225 12.9 29.0 0.00 0.00 0.00 5 1234.1
20260905114235 21 270 12.9 33.8 0.00 0.00 0.00 5 1235.2
20260905113732 21 270 12.9 37.0 0.00 0.00 0.00 5 1235.1
20260905113229 21 247 17.7 40.2 0.00 0.00 0.00 5 1236.8
20260905112727 21 270 9.7 25.7 0.00 0.00 0.00 5 1235.8
20260905112224 21 270 14.5 35.4 0.00 0.00 0.00 5 1235.6
20260905111721 21 135 6.4 12.9 0.00 0.00 0.00 5 1235.3
20260905111218 21 270 11.3 32.2 0.00 0.00 0.00 5 1237.0
20260905110210 21 270 12.9 27.4 0.00 0.00 0.00 6 1237.1
20260905105707 20 247 11.3 30.6 0.00 0.00 0.00 6 1236.5
20260905105205 21 270 11.3 25.7 0.00 0.00 0.00 6 1237.5
20260905104702 20 247 11.3 43.5 0.00 0.00 0.00 6 1237.3
20260905104159 20 135 11.3 25.7 0.00 0.00 0.00 6 1237.4
20260905103656 20 270 11.3 27.4 0.00 0.00 0.00 6 1238.6
20260905103154 19 270 11.3 29.0 0.00 0.00 0.00 6 1238.3
20260905102651 19 225 14.5 33.8 0.00 0.00 0.00 7 1240.1
20260905102148 18 247 12.9 27.4 0.00 0.00 0.00 7 1240.2
20260905101645 18 225 9.7 25.7 0.00 0.00 0.00 6 1239.7
20260905101142 18 247 9.7 27.4 0.00 0.00 0.00 6 1239.1
20260905100640 18 270 11.3 29.0 0.00 0.00 0.00 7 1241.0
20260905100137 18 270 6.4 27.4 0.00 0.00 0.00 6 1239.1
20260905095634 18 247 11.3 29.0 0.00 0.00 0.00 7 1240.9
20260905095132 18 135 11.3 33.8 0.00 0.00 0.00 7 1241.8
20260905094629 18 247 9.7 30.6 0.00 0.00 0.00 6 1240.2
20260905094126 18 270 11.3 32.2 0.00 0.00 0.00 7 1240.8
20260905093623 17 247 8.0 20.9 0.00 0.00 0.00 6 1240.1
20260905093120 17 247 6.4 12.9 0.00 0.00 0.00 6 1239.9
20260905092618 17 270 9.7 20.9 0.00 0.00 0.00 7 1240.9
20260905092115 17 270 8.0 24.1 0.00 0.00 0.00 7 1240.9
20260905091612 17 270 8.0 16.1 0.00 0.00 0.00 6 1240.3
20260905090604 17 270 4.8 11.3 0.00 0.00 0.00 6 1238.7
20260905085558 17 270 6.4 11.3 0.00 0.00 0.00 6 1239.7
20260905085056 16 247 4.8 8.0 0.00 0.00 0.00 6 1238.9
20260905084553 16 270 0.0 0.0 0.00 0.00 0.00 6 1238.9
20260905084050 16 135 4.8 0.0 0.00 0.00 0.00 7 1240.8
20260905083547 16 135 0.0 0.0 0.00 0.00 0.00 6 1239.4
20260905083044 16 225 0.0 0.0 0.00 0.00 0.00 7 1239.7
20260905082542 16 270 0.0 0.0 0.00 0.00 0.00 7 1242.1
20260905082039 16 270 0.0 0.0 0.00 0.00 0.00 7 1243.2
20260905081536 16 270 8.0 12.9 0.00 0.00 0.00 7 1242.7
20260905081033 16 270 0.0 0.0 0.00 0.00 0.00 7 1242.5
20260905080531 16 270 8.0 17.7 0.00 0.00 0.00 7 1242.8
20260905080028 16 247 4.8 6.4 0.00 0.00 0.00 6 1241.7
20260905075525 16 247 4.8 0.0 0.00 0.00 0.00 6 1241.6
20260905075022 16 247 0.0 0.0 0.00 0.00 0.00 7 1242.1
20260905074520 16 247 0.0 0.0 0.00 0.00 0.00 7 1242.6
20260905074017 16 247 0.0 0.0 0.00 0.00 0.00 7 1243.6
20260905073514 15 247 6.4 6.4 0.00 0.00 0.00 7 1243.1
20260905072506 15 247 0.0 0.0 0.00 0.00 0.00 7 1244.2
20260905072003 15 247 6.4 8.0 0.00 0.00 0.00 7 1243.5
20260905071500 15 270 4.8 9.7 0.00 0.00 0.00 7 1244.5
20260905070958 15 270 6.4 12.9 0.00 0.00 0.00 7 1243.7
20260905070455 15 247 4.8 9.7 0.00 0.00 0.00 7 1243.6
20260905065952 15 247 0.0 4.8 0.00 0.00 0.00 7 1243.3
20260905065449 15 270 0.0 0.0 0.00 0.00 0.00 7 1243.1
20260905064947 15 270 0.0 0.0 0.00 0.00 0.00 7 1244.1
20260905064444 15 270 0.0 0.0 0.00 0.00 0.00 7 1245.3
20260905063941 15 270 4.8 6.4 0.00 0.00 0.00 7 1245.8
20260905063438 15 270 4.8 8.0 0.00 0.00 0.00 7 1246.2
20260905062936 15 270 0.0 0.0 0.00 0.00 0.00 7 1246.1
20260905062433 15 270 0.0 0.0 0.00 0.00 0.00 7 1246.0
20260905061930 15 270 0.0 0.0 0.00 0.00 0.00 7 1246.1
20260905061427 15 270 6.4 9.7 0.00 0.00 0.00 7 1246.1
20260905060925 15 270 6.4 9.7 0.00 0.00 0.00 7 1246.3
20260905060422 16 270 9.7 17.7 0.00 0.00 0.00 7 1246.8
20260905055919 16 270 12.9 22.5 0.00 0.00 0.00 7 1245.6
20260905055416 17 270 12.9 20.9 0.00 0.00 0.00 6 1245.0
20260905054914 17 270 16.1 29.0 0.00 0.00 0.00 6 1245.8
20260905054411 17 270 24.1 38.6 0.00 0.00 0.00 6 1244.3
20260905053908 18 270 17.7 35.4 0.00 0.00 0.00 6 1242.5
20260905053405 18 270 6.4 12.9 0.00 0.00 0.00 6 1242.8
20260905052903 18 270 6.4 11.3 0.00 0.00 0.00 6 1240.2
20260905052400 18 270 8.0 12.9 0.00 0.00 0.00 6 1239.6
20260905051857 18 315 6.4 12.9 0.00 0.00 0.00 6 1242.4
20260905051354 18 315 8.0 14.5 0.00 0.00 0.00 6 1242.4
20260905050852 18 337 6.4 19.3 0.00 0.00 0.00 6 1242.4
20260905050349 19 315 11.3 17.7 0.00 0.00 0.00 6 1242.0
20260905045846 19 270 6.4 12.9 0.00 0.00 0.00 6 1241.4
20260905045343 18 337 4.8 11.3 0.00 0.00 0.00 6 1241.3
20260905044841 18 270 6.4 11.3 0.00 0.00 0.00 6 1240.4
20260905044338 18 270 6.4 17.7 0.00 0.00 0.00 6 1240.4
20260905043835 19 270 4.8 11.3 0.00 0.00 0.00 6 1240.5
20260905043332 18 270 4.8 8.0 0.00 0.00 0.00 7 1241.0
20260905042830 18 270 4.8 6.4 0.00 0.00 0.00 7 1240.8
20260905042327 18 270 4.8 9.7 0.00 0.00 0.00 7 1241.1
20260905041824 18 270 4.8 6.4 0.00 0.00 0.00 6 1236.6
20260905041321 18 270 4.8 6.4 0.00 0.00 0.00 6 1235.5
20260905040819 18 270 3.2 6.4 0.00 0.00 0.00 6 1236.3
20260905040316 19 270 4.8 6.4 0.00 0.00 0.00 6 1236.8
20260905035813 19 270 4.8 4.8 0.00 0.00 0.00 6 1238.9
20260905035310 19 270 4.8 6.4 0.00 0.00 0.00 6 1238.8
20260905034808 20 270 4.8 8.0 0.00 0.00 0.00 7 1239.0
20260905034305 20 270 4.8 9.7 0.00 0.00 0.00 6 1238.5
20260905033802 20 270 11.3 24.1 0.00 0.00 0.00 6 1238.1
20260905033259 20 270 8.0 12.9 0.00 0.00 0.00 6 1237.9
20260905032757 20 270 12.9 22.5 0.00 0.00 0.00 6 1236.8
20260905032254 21 270 14.5 27.4 0.00 0.00 0.00 6 1236.4
20260905031751 21 315 16.1 29.0 0.00 0.00 0.00 6 1235.9
20260905031248 21 315 16.1 27.4 0.00 0.00 0.00 6 1234.7
20260905030745 21 270 17.7 33.8 0.00 0.00 0.00 6 1234.3
20260905030243 22 315 17.7 38.6 0.00 0.00 0.00 6 1232.6
20260905025740 22 315 16.1 30.6 0.00 0.00 0.00 5 1228.5
20260905025237 23 247 8.0 16.1 0.00 0.00 0.00 4 1221.8
20260905024735 23 270 8.0 19.3 0.00 0.00 0.00 4 1221.3
20260905024232 23 247 8.0 20.9 0.00 0.00 0.00 4 1220.4
20260905023729 23 270 6.4 11.3 0.00 0.00 0.00 4 1219.6
20260905023226 23 247 9.7 16.1 0.00 0.00 0.00 4 1219.3
20260905022724 23 270 4.8 4.8 0.00 0.00 0.00 4 1219.3
20260905022221 23 247 6.4 4.8 0.00 0.00 0.00 4 1218.1
20260905021718 23 270 0.0 0.0 0.00 0.00 0.00 4 1218.8
20260905021215 22 247 0.0 0.0 0.00 0.00 0.00 4 1219.3
20260905020713 22 247 0.0 0.0 0.00 0.00 0.00 4 1219.3
20260905020210 23 247 0.0 0.0 0.00 0.00 0.00 4 1219.7
20260905015707 23 247 4.8 6.4 0.00 0.00 0.00 4 1219.8
20260905015207 23 270 6.4 11.3 0.00 0.00 0.00 4 1219.9
20260905014702 23 247 0.0 0.0 0.00 0.00 0.00 4 1218.6
20260905014159 23 270 0.0 0.0 0.00 0.00 0.00 4 1218.7
20260905013656 23 270 0.0 0.0 0.00 0.00 0.00 4 1218.6
20260905013153 23 270 0.0 0.0 0.00 0.00 0.00 4 1219.2
20260905012650 22 270 0.0 0.0 0.00 0.00 0.00 4 1219.3
20260905012148 23 270 0.0 0.0 0.00 0.00 0.00 4 1219.5
20260905011645 23 270 0.0 0.0 0.00 0.00 0.00 4 1219.2
20260905011142 23 270 0.0 0.0 0.00 0.00 0.00 4 1219.2
20260905010640 23 247 0.0 0.0 0.00 0.00 0.00 4 1218.7
20260905010137 22 270 0.0 0.0 0.00 0.00 0.00 4 1218.9
20260905005634 22 247 0.0 0.0 0.00 0.00 0.00 4 1219.2
20260905005131 22 247 0.0 0.0 0.00 0.00 0.00 4 1219.4
20260905004628 22 247 0.0 0.0 0.00 0.00 0.00 4 1219.3
20260905004126 22 247 0.0 0.0 0.00 0.00 0.00 4 1219.8
20260905003623 22 247 0.0 0.0 0.00 0.00 0.00 4 1219.8
20260905003120 22 247 0.0 0.0 0.00 0.00 0.00 4 1220.3
20260905002617 22 247 0.0 0.0 0.00 0.00 0.00 4 1220.8
20260905002115 22 247 0.0 0.0 0.00 0.00 0.00 4 1221.5
20260905001612 21 247 0.0 0.0 0.00 0.00 0.00 4 1222.4
20260905001109 21 247 0.0 0.0 0.00 0.00 0.00 4 1222.7
20260905000606 20 247 0.0 0.0 0.00 0.00 0.00 5 1223.9
20260905000104 20 247 0.0 0.0 0.00 0.00 0.00 5 1224.3
20260904235601 20 247 0.0 0.0 0.00 0.00 0.00 5 1225.2
20260904235058 19 247 0.0 0.0 0.00 0.00 0.00 5 1225.6
20260904234554 19 247 0.0 0.0 0.00 0.00 0.00 5 1225.6
20260904234054 20 247 0.0 0.0 0.00 0.00 0.00 5 1225.1
20260904233549 20 247 0.0 0.0 0.00 0.00 0.00 5 1224.6
20260904232543 19 247 0.0 0.0 0.00 0.00 0.00 5 1225.4
20260904232041 19 247 0.0 0.0 0.00 0.00 0.00 5 1225.5
20260904231538 19 247 0.0 0.0 0.00 0.00 0.00 5 1226.3
20260904231035 19 247 0.0 0.0 0.00 0.00 0.00 5 1226.2
20260904230532 19 247 0.0 0.0 0.00 0.00 0.00 5 1225.6
20260904230030 19 247 0.0 0.0 0.00 0.00 0.00 5 1225.1
20260904225527 20 247 0.0 0.0 0.00 0.00 0.00 5 1225.3
20260904225024 20 247 0.0 0.0 0.00 0.00 0.00 5 1224.9
20260904224521 20 247 0.0 0.0 0.00 0.00 0.00 5 1224.8
20260904224018 20 247 0.0 0.0 0.00 0.00 0.00 5 1225.1
20260904223516 20 247 0.0 0.0 0.00 0.00 0.00 5 1225.0